| time (UTC) | temp F | wind direction | speed MPH | gust MPH | rain 1hr in | rain 24hr in | rain mn in | humidity % | barometer mb |
| 20260904220021 | 77 | 1 | 1.0 | 11.0 | 0.00 | 0.02 | 0.02 | 42 | 1012.5 |
| 20260904214532 | 78 | 326 | 2.0 | 6.0 | 0.00 | 0.02 | 0.02 | 40 | 1012.5 |
| 20260904213005 | 77 | 168 | 5.0 | 11.0 | 0.00 | 0.02 | 0.02 | 41 | 1012.5 |
| 20260904211506 | 77 | 338 | 0.0 | 5.0 | 0.00 | 0.02 | 0.02 | 42 | 1012.6 |
| 20260904210043 | 78 | 330 | 0.0 | 9.0 | 0.00 | 0.02 | 0.02 | 42 | 1012.6 |
| 20260904180104 | 68 | 185 | 2.0 | 7.0 | 0.00 | 0.02 | 0.02 | 68 | 1013.5 |
| 20260904174604 | 67 | 158 | 3.0 | 7.0 | 0.00 | 0.02 | 0.02 | 70 | 1013.6 |
| 20260904173128 | 66 | 195 | 0.0 | 6.0 | 0.01 | 0.02 | 0.02 | 76 | 1013.6 |
| 20260904171611 | 65 | 195 | 0.0 | 4.0 | 0.01 | 0.02 | 0.02 | 78 | 1013.4 |
| 20260904170108 | 65 | 276 | 0.0 | 6.0 | 0.01 | 0.02 | 0.02 | 78 | 1013.3 |
| 20260904164504 | 64 | 200 | 1.0 | 5.0 | 0.00 | 0.01 | 0.01 | 80 | 1013.2 |
| 20260904163018 | 62 | 148 | 0.0 | 3.0 | 0.00 | 0.01 | 0.01 | 85 | 1013.2 |
| 20260904161605 | 61 | 229 | 0.0 | 3.0 | 0.00 | 0.01 | 0.01 | 87 | 1013.1 |
| 20260904160106 | 60 | 266 | 0.0 | 4.0 | 0.00 | 0.01 | 0.01 | 88 | 1013.1 |
| 20260904154603 | 60 | 335 | 0.0 | 1.0 | 0.00 | 0.01 | 0.01 | 89 | 1013.0 |
| 20260904153103 | 59 | 290 | 1.0 | 6.0 | 0.00 | 0.01 | 0.01 | 89 | 1012.9 |
| 20260904151503 | 60 | 247 | 0.0 | 5.0 | 0.00 | 0.01 | 0.01 | 90 | 1012.9 |
| 20260904150011 | 60 | 353 | 0.0 | 3.0 | 0.00 | 0.01 | 0.01 | 90 | 1012.9 |
| 20260904144504 | 60 | 285 | 0.0 | 4.0 | 0.00 | 0.01 | 0.01 | 91 | 1012.7 |
| 20260904143003 | 60 | 297 | 0.0 | 4.0 | 0.00 | 0.01 | 0.01 | 91 | 1012.4 |
| 20260904141503 | 60 | 282 | 0.0 | 3.0 | 0.00 | 0.01 | 0.01 | 91 | 1012.2 |
| 20260904140003 | 60 | 252 | 1.0 | 4.0 | 0.00 | 0.01 | 0.01 | 91 | 1012.0 |
| 20260904134510 | 60 | 240 | 0.0 | 2.0 | 0.00 | 0.01 | 0.01 | 91 | 1011.8 |
| 20260904133048 | 60 | 251 | 0.0 | 0.0 | 0.00 | 0.01 | 0.01 | 91 | 1011.7 |
| 20260904131521 | 60 | 276 | 0.0 | 1.0 | 0.00 | 0.01 | 0.01 | 91 | 1011.7 |
| 20260904130030 | 60 | 247 | 1.0 | 0.0 | 0.00 | 0.00 | 0.01 | 90 | 1011.5 |
| 20260904124528 | 60 | 267 | 0.0 | 4.0 | 0.00 | 0.01 | 0.01 | 90 | 1011.5 |
| 20260904123032 | 61 | 259 | 0.0 | 5.0 | 0.00 | 0.01 | 0.01 | 90 | 1011.4 |
| 20260904121543 | 61 | 295 | 0.0 | 7.0 | 0.00 | 0.01 | 0.01 | 90 | 1011.2 |
| 20260904120050 | 61 | 241 | 0.0 | 3.0 | 0.00 | 0.01 | 0.01 | 91 | 1011.2 |
| 20260904114548 | 61 | 244 | 0.0 | 3.0 | 0.00 | 0.01 | 0.01 | 91 | 1011.2 |
| 20260904113050 | 61 | 298 | 0.0 | 3.0 | 0.00 | 0.01 | 0.01 | 91 | 1011.1 |
| 20260904111547 | 61 | 243 | 0.0 | 1.0 | 0.00 | 0.01 | 0.01 | 91 | 1011.1 |
| 20260904110047 | 61 | 256 | 0.0 | 2.0 | 0.00 | 0.01 | 0.01 | 91 | 1011.0 |
| 20260904104549 | 61 | 248 | 0.0 | 3.0 | 0.00 | 0.01 | 0.01 | 91 | 1010.9 |
| 20260904103047 | 62 | 270 | 0.0 | 2.0 | 0.00 | 0.01 | 0.01 | 92 | 1010.9 |
| 20260904101546 | 62 | 309 | 0.0 | 1.0 | 0.00 | 0.01 | 0.01 | 92 | 1010.8 |
| 20260904100050 | 62 | 310 | 0.0 | 0.0 | 0.00 | 0.01 | 0.01 | 92 | 1010.7 |
| 20260904094554 | 62 | 266 | 0.0 | 1.0 | 0.00 | 0.01 | 0.01 | 92 | 1010.8 |
| 20260904093051 | 61 | 341 | 0.0 | 1.0 | 0.00 | 0.01 | 0.01 | 92 | 1010.6 |
| 20260904091547 | 62 | 300 | 0.0 | 3.0 | 0.00 | 0.01 | 0.01 | 92 | 1010.6 |
| 20260904090047 | 62 | 310 | 0.0 | 3.0 | 0.00 | 0.01 | 0.01 | 92 | 1010.7 |
| 20260904084547 | 62 | 347 | 0.0 | 3.0 | 0.01 | 0.01 | 0.01 | 92 | 1010.7 |
| 20260904083048 | 62 | 354 | 0.0 | 4.0 | 0.01 | 0.01 | 0.01 | 91 | 1010.8 |
| 20260904081547 | 62 | 293 | 0.0 | 4.0 | 0.01 | 0.01 | 0.01 | 90 | 1010.7 |
| 20260904080046 | 63 | 221 | 1.0 | 4.0 | 0.01 | 0.01 | 0.01 | 88 | 1010.7 |
| 20260904074546 | 64 | 324 | 0.0 | 3.0 | 0.00 | 0.00 | 0.00 | 85 | 1010.9 |
| 20260904073049 | 65 | 317 | 0.0 | 3.0 | 0.00 | 0.00 | 0.00 | 80 | 1011.0 |
| 20260904071517 | 65 | 326 | 0.0 | 6.0 | 0.00 | 0.00 | 0.00 | 79 | 1010.9 |
| 20260904070041 | 65 | 342 | 0.0 | 5.0 | 0.00 | 0.00 | 0.00 | 78 | 1010.9 |
| 20260904064541 | 66 | 9 | 0.0 | 3.0 | 0.00 | 0.00 | 0.00 | 77 | 1010.8 |
| 20260904063041 | 66 | 264 | 0.0 | 4.0 | 0.00 | 0.00 | 0.00 | 77 | 1010.7 |
| 20260904061542 | 66 | 274 | 1.0 | 5.0 | 0.00 | 0.00 | 0.00 | 77 | 1010.8 |
| 20260904060056 | 67 | 294 | 0.0 | 5.0 | 0.00 | 0.00 | 0.00 | 77 | 1010.8 |
| 20260904054555 | 67 | 311 | 0.0 | 6.0 | 0.00 | 0.00 | 0.00 | 77 | 1010.8 |
| 20260904053055 | 67 | 328 | 1.0 | 7.0 | 0.00 | 0.00 | 0.00 | 77 | 1010.8 |
| 20260904051605 | 67 | 323 | 0.0 | 3.0 | 0.00 | 0.00 | 0.00 | 78 | 1011.0 |
| 20260904050057 | 67 | 316 | 0.0 | 4.0 | 0.00 | 0.00 | 0.00 | 77 | 1010.9 |
| 20260904044555 | 67 | 262 | 0.0 | 2.0 | 0.00 | 0.00 | 0.00 | 77 | 1010.8 |
| 20260904043111 | 67 | 256 | 0.0 | 3.0 | 0.00 | 0.00 | 0.00 | 77 | 1010.9 |
| 20260904041609 | 67 | 262 | 0.0 | 3.0 | 0.00 | 0.00 | 0.00 | 77 | 1010.9 |
| 20260904040110 | 67 | 321 | 0.0 | 0.0 | 0.00 | 0.00 | 0.00 | 77 | 1010.9 |
| 20260904034513 | 68 | 307 | 0.0 | 1.0 | 0.00 | 0.00 | 0.00 | 76 | 1010.8 |
| 20260904033010 | 68 | 304 | 0.0 | 2.0 | 0.00 | 0.00 | 0.00 | 76 | 1010.7 |
| 20260904031510 | 68 | 345 | 0.0 | 1.0 | 0.00 | 0.00 | 0.00 | 75 | 1010.5 |
| 20260904030010 | 68 | 7 | 0.0 | 2.0 | 0.00 | 0.00 | 0.00 | 74 | 1010.4 |
| 20260904024525 | 68 | 325 | 1.0 | 5.0 | 0.00 | 0.00 | 0.00 | 74 | 1010.5 |
| 20260904023025 | 69 | 354 | 0.0 | 7.0 | 0.00 | 0.00 | 0.00 | 73 | 1010.6 |
| 20260904021527 | 69 | 4 | 1.0 | 5.0 | 0.00 | 0.00 | 0.00 | 72 | 1010.6 |
| 20260904020025 | 69 | 7 | 1.0 | 8.0 | 0.00 | 0.00 | 0.00 | 71 | 1010.6 |
| 20260904014553 | 70 | 356 | 1.0 | 7.0 | 0.00 | 0.00 | 0.00 | 70 | 1010.7 |
| 20260904013046 | 71 | 16 | 1.0 | 7.0 | 0.00 | 0.00 | 0.00 | 69 | 1010.7 |
| 20260904011541 | 71 | 24 | 0.0 | 6.0 | 0.00 | 0.00 | 0.00 | 68 | 1010.7 |
| 20260904010042 | 71 | 175 | 2.0 | 12.0 | 0.00 | 0.00 | 0.00 | 67 | 1010.8 |
| 20260904004554 | 72 | 351 | 3.0 | 12.0 | 0.00 | 0.00 | 0.00 | 65 | 1010.8 |
| 20260904003054 | 74 | 344 | 2.0 | 7.0 | 0.00 | 0.00 | 0.00 | 63 | 1010.8 |
| 20260904001554 | 74 | 349 | 3.0 | 14.0 | 0.00 | 0.00 | 0.00 | 62 | 1010.8 |
| 20260904000109 | 74 | 275 | 1.0 | 11.0 | 0.00 | 0.00 | 0.00 | 62 | 1010.8 |
| 20260903234609 | 74 | 34 | 4.0 | 14.0 | 0.00 | 0.00 | 0.00 | 62 | 1010.9 |
| 20260903233111 | 75 | 59 | 1.0 | 12.0 | 0.00 | 0.00 | 0.00 | 61 | 1010.9 |
| 20260903231609 | 76 | 351 | 2.0 | 8.0 | 0.00 | 0.00 | 0.00 | 57 | 1011.0 |
| 20260903230116 | 76 | 349 | 3.0 | 12.0 | 0.00 | 0.00 | 0.00 | 57 | 1011.1 |
| 20260903224523 | 77 | 327 | 1.0 | 6.0 | 0.00 | 0.00 | 0.00 | 56 | 1011.2 |
| 20260903223011 | 76 | 356 | 1.0 | 8.0 | 0.00 | 0.00 | 0.00 | 57 | 1011.3 |
| 20260903221509 | 76 | 11 | 0.0 | 7.0 | 0.00 | 0.00 | 0.00 | 56 | 1011.4 |